When you browse on this site, cookies collect data to enhance your experience and personalize the content and advertising you see.
Visit our Privacy Policy to learn more. By continuing to use the site, you agree to this use of cookies and data.
  • In Deutschland
  • Länderverzeichnis
  • Für 7 Tage
  • Wassertemperatur
  • Satellitenkarten
  • Wetterkarte
  • Widgets
  • user-avatar
    Anmelden

    Stündliche Wetter Sidi Bu-l-Abbas

    Heute, 19 Juni, Mittwoch

    Zeit Temperatur Niederschläge Wind Luftdruck Luftfeuchtigkeit
    00:00 +22°C° 0 mm 1 m/S 720 mmHg 72%
    01:00 +22°C° 0 mm 1 m/S 720 mmHg 73%
    02:00 +21°C° 0 mm 1 m/S 719 mmHg 74%
    03:00 +21°C° 0 mm 1 m/S 719 mmHg 76%
    04:00 +21°C° 0 mm 1 m/S 719 mmHg 70%
    05:00 +22°C° 0 mm 1 m/S 719 mmHg 65%
    06:00 +22°C° 0 mm 1 m/S 720 mmHg 60%
    07:00 +24°C° 0 mm 1 m/S 720 mmHg 49%
    08:00 +26°C° 0 mm 1 m/S 720 mmHg 37%
    09:00 +27°C° 0 mm 1 m/S 721 mmHg 25%
    10:00 +29°C° 0 mm 2 m/S 721 mmHg 25%
    11:00 +31°C° 0 mm 3 m/S 720 mmHg 24%
    12:00 +33°C° 0 mm 4 m/S 720 mmHg 23%
    13:00 +33°C° 0 mm 5 m/S 720 mmHg 25%
    14:00 +33°C° 0 mm 6 m/S 719 mmHg 28%
    15:00 +32°C° 0 mm 6 m/S 719 mmHg 30%
    16:00 +30°C° 0 mm 6 m/S 718 mmHg 33%
    17:00 +29°C° 0 mm 5 m/S 718 mmHg 36%
    18:00 +27°C° 0 mm 4 m/S 718 mmHg 39%
    19:00 +26°C° 0 mm 3 m/S 719 mmHg 42%
    20:00 +25°C° 0 mm 2 m/S 719 mmHg 45%
    21:00 +24°C° 0 mm 1 m/S 719 mmHg 47%
    22:00 +24°C° 0 mm 1 m/S 719 mmHg 47%
    23:00 +23°C° 0 mm 2 m/S 719 mmHg 48%

    Morgen, 20 Juni, Donnerstag

    Zeit Temperatur Niederschläge Wind Luftdruck Luftfeuchtigkeit
    00:00 +23°C° 0 mm 2 m/S 719 mmHg 48%
    01:00 +22°C° 0 mm 1 m/S 719 mmHg 50%
    02:00 +22°C° 0 mm 1 m/S 718 mmHg 51%
    03:00 +21°C° 0 mm 1 m/S 718 mmHg 53%
    04:00 +22°C° 0 mm 1 m/S 718 mmHg 50%
    05:00 +22°C° 0 mm 1 m/S 718 mmHg 48%
    06:00 +23°C° 0 mm 1 m/S 719 mmHg 46%
    07:00 +24°C° 0 mm 1 m/S 719 mmHg 41%
    08:00 +26°C° 0 mm 2 m/S 719 mmHg 36%
    09:00 +27°C° 0 mm 3 m/S 719 mmHg 30%
    10:00 +28°C° 0 mm 4 m/S 719 mmHg 29%
    11:00 +29°C° 0 mm 5 m/S 719 mmHg 28%
    12:00 +32°C° 0 mm 6 m/S 719 mmHg 27%
    13:00 +30°C° 0 mm 6 m/S 719 mmHg 28%
    14:00 +30°C° 0 mm 7 m/S 718 mmHg 28%
    15:00 +29°C° 0 mm 7 m/S 717 mmHg 29%
    16:00 +28°C° 0 mm 6 m/S 718 mmHg 30%
    17:00 +27°C° 0 mm 5 m/S 718 mmHg 32%
    18:00 +27°C° 0 mm 4 m/S 718 mmHg 33%
    19:00 +25°C° 0 mm 3 m/S 718 mmHg 37%
    20:00 +24°C° 0 mm 2 m/S 718 mmHg 40%
    21:00 +23°C° 0 mm 1 m/S 718 mmHg 43%
    22:00 +23°C° 0 mm 1 m/S 719 mmHg 43%
    23:00 +22°C° 0 mm 1 m/S 719 mmHg 44%

    übermorgen, 21 Juni, Freitag

    Zeit Temperatur Niederschläge Wind Luftdruck Luftfeuchtigkeit
    00:00 +21°C° 0 mm 2 m/S 719 mmHg 45%
    01:00 +20°C° 0 mm 2 m/S 719 mmHg 46%
    02:00 +21°C° 0 mm 1 m/S 718 mmHg 48%
    03:00 +20°C° 0 mm 1 m/S 718 mmHg 50%
    04:00 +21°C° 0 mm 1 m/S 718 mmHg 49%
    05:00 +19°C° 0 mm 0 m/S 719 mmHg 47%
    06:00 +20°C° 0 mm 0 m/S 719 mmHg 46%
    07:00 +24°C° 0 mm 1 m/S 719 mmHg 40%
    08:00 +26°C° 0 mm 3 m/S 719 mmHg 35%
    09:00 +27°C° 0 mm 4 m/S 720 mmHg 30%
    10:00 +28°C° 0 mm 5 m/S 720 mmHg 31%
    11:00 +29°C° 0 mm 5 m/S 720 mmHg 31%
    12:00 +30°C° 0 mm 6 m/S 720 mmHg 31%
    13:00 +30°C° 0 mm 6 m/S 719 mmHg 31%
    14:00 +30°C° 0 mm 6 m/S 719 mmHg 31%
    15:00 +30°C° 0 mm 6 m/S 718 mmHg 30%
    16:00 +29°C° 0 mm 6 m/S 718 mmHg 31%
    17:00 +28°C° 0 mm 5 m/S 718 mmHg 31%
    18:00 +27°C° 0 mm 5 m/S 718 mmHg 32%
    19:00 +26°C° 0 mm 3 m/S 719 mmHg 36%
    20:00 +24°C° 0 mm 2 m/S 719 mmHg 41%
    21:00 +21°C° 0 mm 0 m/S 719 mmHg 45%
    22:00 +20°C° 0 mm 0 m/S 719 mmHg 45%
    23:00 +20°C° 0 mm 0 m/S 719 mmHg 45%

    22 Juni, Samstag

    Zeit Temperatur Niederschläge Wind Luftdruck Luftfeuchtigkeit
    00:00 +21°C° 0 mm 1 m/S 719 mmHg 45%
    01:00 +21°C° 0 mm 1 m/S 719 mmHg 48%
    02:00 +20°C° 0 mm 1 m/S 718 mmHg 52%
    03:00 +19°C° 0 mm 1 m/S 718 mmHg 56%
    04:00 +18°C° 0 mm 0 m/S 718 mmHg 55%
    05:00 +19°C° 0 mm 0 m/S 718 mmHg 55%
    06:00 +19°C° 0 mm 0 m/S 719 mmHg 54%
    07:00 +21°C° 0 mm 0 m/S 719 mmHg 47%
    08:00 +25°C° 0 mm 1 m/S 719 mmHg 39%
    09:00 +27°C° 0 mm 1 m/S 719 mmHg 32%
    10:00 +28°C° 0 mm 2 m/S 719 mmHg 29%
    11:00 +30°C° 0 mm 3 m/S 719 mmHg 26%
    12:00 +33°C° 0 mm 3 m/S 719 mmHg 23%
    13:00 +33°C° 0 mm 5 m/S 718 mmHg 26%
    14:00 +33°C° 0 mm 6 m/S 718 mmHg 29%
    15:00 +33°C° 0 mm 7 m/S 717 mmHg 32%
    16:00 +32°C° 0 mm 6 m/S 717 mmHg 35%
    17:00 +29°C° 0 mm 5 m/S 717 mmHg 38%
    18:00 +28°C° 0 mm 4 m/S 717 mmHg 41%
    19:00 +26°C° 0 mm 3 m/S 717 mmHg 49%
    20:00 +24°C° 0 mm 3 m/S 718 mmHg 57%
    21:00 +23°C° 0 mm 2 m/S 718 mmHg 64%
    22:00 +22°C° 0 mm 1 m/S 718 mmHg 68%
    23:00 +21°C° 0 mm 1 m/S 718 mmHg 72%

    23 Juni, Sonntag

    Zeit Temperatur Niederschläge Wind Luftdruck Luftfeuchtigkeit
    00:00 +21°C° 0 mm 1 m/S 718 mmHg 75%
    01:00 +20°C° 0 mm 1 m/S 717 mmHg 80%
    02:00 +20°C° 0 mm 1 m/S 717 mmHg 84%
    03:00 +19°C° 0 mm 1 m/S 717 mmHg 89%
    04:00 +19°C° 0 mm 1 m/S 717 mmHg 89%
    05:00 +20°C° 0 mm 1 m/S 717 mmHg 88%
    06:00 +18°C° 0 mm 0 m/S 717 mmHg 88%
    07:00 +21°C° 0 mm 1 m/S 717 mmHg 79%
    08:00 +23°C° 0 mm 1 m/S 718 mmHg 71%
    09:00 +24°C° 0 mm 2 m/S 718 mmHg 62%
    10:00 +27°C° 0 mm 2 m/S 718 mmHg 53%
    11:00 +30°C° 0 mm 3 m/S 718 mmHg 45%
    12:00 +33°C° 0 mm 4 m/S 718 mmHg 37%
    13:00 +33°C° 0 mm 5 m/S 717 mmHg 38%
    14:00 +34°C° 0 mm 5 m/S 717 mmHg 39%
    15:00 +34°C° 0 mm 5 m/S 716 mmHg 40%
    16:00 +33°C° 0 mm 5 m/S 716 mmHg 43%
    17:00 +32°C° 0 mm 4 m/S 716 mmHg 47%
    18:00 +29°C° 0 mm 3 m/S 716 mmHg 51%
    19:00 +28°C° 0 mm 3 m/S 716 mmHg 58%
    20:00 +26°C° 0 mm 2 m/S 716 mmHg 66%
    21:00 +24°C° 0 mm 1 m/S 717 mmHg 73%
    22:00 +23°C° 0 mm 1 m/S 717 mmHg 75%
    23:00 +23°C° 0 mm 1 m/S 717 mmHg 78%

    24 Juni, Montag

    Zeit Temperatur Niederschläge Wind Luftdruck Luftfeuchtigkeit
    00:00 +21°C° 0 mm 2 m/S 717 mmHg 80%
    01:00 +21°C° 0 mm 2 m/S 717 mmHg 82%
    02:00 +21°C° 0 mm 1 m/S 717 mmHg 83%
    03:00 +21°C° 0 mm 1 m/S 717 mmHg 85%
    04:00 +21°C° 0 mm 1 m/S 717 mmHg 81%
    05:00 +22°C° 0 mm 1 m/S 717 mmHg 77%
    06:00 +22°C° 0 mm 1 m/S 718 mmHg 74%
    07:00 +25°C° 0 mm 2 m/S 718 mmHg 62%
    08:00 +28°C° 0 mm 3 m/S 718 mmHg 49%
    09:00 +32°C° 0 mm 4 m/S 719 mmHg 37%
    10:00 +34°C° 0 mm 4 m/S 719 mmHg 33%
    11:00 +36°C° 0 mm 4 m/S 719 mmHg 28%
    12:00 +38°C° 0 mm 4 m/S 719 mmHg 23%
    13:00 +38°C° 0 mm 4 m/S 719 mmHg 25%
    14:00 +38°C° 0 mm 4 m/S 718 mmHg 27%
    15:00 +37°C° 0 mm 4 m/S 718 mmHg 29%
    16:00 +35°C° 0 mm 4 m/S 718 mmHg 34%
    17:00 +34°C° 0 mm 4 m/S 718 mmHg 39%
    18:00 +31°C° 0 mm 3 m/S 718 mmHg 45%
    19:00 +28°C° 0 mm 3 m/S 718 mmHg 54%
    20:00 +26°C° 0 mm 2 m/S 718 mmHg 64%
    21:00 +23°C° 0 mm 2 m/S 719 mmHg 74%
    22:00 +23°C° 0 mm 2 m/S 719 mmHg 76%
    23:00 +21°C° 0 mm 2 m/S 719 mmHg 78%
    Mehr zeigen